UmKA 1 (RS40S)
1 57172U 23091G   26034.58795134  .00008114  00000-0  38955-3 0  9991
2 57172  97.5250  93.8318 0012325 220.8741 139.1570 15.19059248143717
CubeBel-2 (EU11S)
1 57175U 23091K   26034.61292666  .00014546  00000-0  57226-3 0  9998
2 57175  97.5246  96.8480 0009744 220.6796 139.3715 15.25709131143912
RS-38S
1 57189U 23091Z   26034.60451293  .00018960  00000-0  62593-3 0  9992
2 57189  97.5270 101.7552 0008045 179.2358 180.8896 15.31423178144212
SONATE-2
1 59112U 24043Q   26034.63644387  .00035818  00000-0  66781-3 0  9993
2 59112  97.5359 178.0109 0008253 336.9243  23.1635 15.48698778107159
MO-122
1 60209U 24125G   26034.52819773  .00040410  00000-0  70453-3 0  9999
2 60209  97.2484 250.0810 0013687 357.2994   2.8182 15.50517401 88773
GRBBeta
1 60237U 24128C   26034.17123351  .00005733  00000-0  39974-3 0  9996
2 60237  61.9924 326.0495 0054204 106.9866 253.7176 15.05377014 86087
Curium One
1 60242U 24128H   26034.32816947  .00011265  00000-0  67780-3 0  9992
2 60242  61.9811 319.0575 0054019 104.0039 256.7070 15.10050446 86229
ROBUSTA-3A
1 60243U 24128J   26034.22323626  .00011772  00000-0  72079-3 0  9999
2 60243  61.9888 321.2041 0054613 101.3288 259.3950 15.09355271 86186
CatSat
1 60246U 24125J   26034.01704115  .00045210  00000-0  92973-3 0  9991
2 60246  97.2253 245.9940 0029571 319.5999  40.3054 15.45356757 86581
HYPERVIEW-1G (RS66S)
1 61772U 24199AP  26034.60049613  .00056523  00000-0  88344-3 0  9993
2 61772  97.3147 269.8870 0011139  52.5619 307.6647 15.53539400113800
AO-123
1 61781U 24199AY  26034.62350058  .00011652  00000-0  36288-3 0  9997
2 61781  97.3202 264.5303 0015959  69.1740 291.1210 15.33305449113443
HADES-R (SO-124)
1 62690U 25009CK  26032.99082620  .05664363  23962-5  28116-2 0  9998
2 62690  97.3536 123.7794 0009923 302.1245  57.9081 16.20799086 58844
HYDRA-T
1 62692U 25009CM  26028.19742799  .10589489  24473-5  20739-2 0  9999
2 62692  97.3569 119.0624 0010828 297.3030  62.7162 16.31546071 58115
JINJUSat 1B
1 63210U 25052A   26034.44733624  .00019293  00000-0  69015-3 0  9992
2 63210  97.4170 291.3440 0003129 165.3505 194.7826 15.28832926 49630
NUSHSAT 1
1 63211U 25052B   26034.26957727  .00022701  00000-0  77643-3 0  9999
2 63211  97.4150 291.3735 0002882 167.7687 192.3624 15.30264154 49622
TEVEL2-4
1 63213U 25052D   26034.49260904  .00019898  00000-0  69898-3 0  9996
2 63213  97.4073 291.0320 0001646 172.9805 187.1459 15.29423927 49645
TEVEL2-5
1 63214U 25052E   26034.43564745  .00020121  00000-0  70903-3 0  9991
2 63214  97.4067 290.9546 0001652 171.6566 188.4702 15.29319419 49638
TEVEL2-6
1 63215U 25052F   26034.24822677  .00020716  00000-0  73100-3 0  9994
2 63215  97.4073 290.7545 0001684 176.7075 183.4176 15.29267944 49601
TEVEL2-1
1 63217U 25052H   26034.23749943  .00019634  00000-0  70117-3 0  9991
2 63217  97.4049 290.5088 0001218 201.0424 159.0766 15.28887177 49596
TEVEL2-3
1 63218U 25052J   26034.43215446  .00020002  00000-0  71339-3 0  9998
2 63218  97.4050 290.7114 0001183 201.3892 158.7299 15.28925811 49623
TEVEL2-2
1 63219U 25052K   26034.43454242  .00020041  00000-0  71541-3 0  9996
2 63219  97.4051 290.7056 0001241 206.3650 153.7527 15.28896600 49624
TEVEL2-9
1 63237U 25052AD  26034.18912955  .00020291  00000-0  76074-3 0  9991
2 63237  97.4110 290.0887 0004631 256.2640 103.8083 15.27269984 49546
TEVEL2-7
1 63238U 25052AE  26034.27438710  .00019203  00000-0  72429-3 0  9995
2 63238  97.4111 290.1354 0004732 255.5777 104.4937 15.27082593 49558
TEVEL2-8
1 63239U 25052AF  26034.21536083  .00018959  00000-0  71572-3 0  9997
2 63239  97.4108 290.0588 0004765 256.9045 103.1662 15.27055713 49546
HYDRA-W
1 63490U 25052BL  26034.51424997  .00115092  00000-0  18816-2 0  9996
2 63490  97.4011 294.4102 0003083 207.6343 152.4746 15.52121122 49876
HADES-ICM (SO-125)
1 63492U 25052BN  26033.95191145  .00094639  00000-0  17677-2 0  9998
2 63492  97.4022 293.3634 0003463 229.7496 130.3452 15.48414396 49753
Dragonfly
1 65729U 98067XH  26031.05194254  .08662331  12285-4  96629-3 0  9997
2 65729  51.6000 237.6139 0006569 265.0285  94.9990 16.36242872 20999
RSP-03
1 65732U 98067XL  26034.53636242  .00558295  13872-3  14023-2 0  9999
2 65732  51.6167 223.4903 0005522 250.4003 109.6408 15.95057000 21500
BOTAN
1 65942U 98067XP  26034.53684974  .00297373  00000-0  14400-2 0  9999
2 65942  51.6184 229.5572 0005489 236.9526 123.0949 15.81104541 18168
CEVROSAT1
1 66309U 25248S   26034.23438941  .00006479  00000-0  31827-3 0  9994
2 66309  45.4049 119.1214 0002813 346.8033  13.2779 15.18866374 14139
SPIRONE
1 66657U 25274H   26034.30140669  .00003250  00000-0  31882-3 0  9999
2 66657  97.7431 325.6270 0014052  97.9972 262.2842 14.92838284 10245
K-HERO
1 66660U 25274L   26034.34558071  .00003471  00000-0  33598-3 0  9998
2 66660  97.7433 325.7285 0015830 102.4894 257.8098 14.93311769 10257
SNUGLITE-III DURI
1 66661U 25274M   26034.33965334  .00002686  00000-0  26046-3 0  9999
2 66661  97.7429 325.7337 0016372 103.6894 256.6150 14.93415531 10254
SilverSat
1 66909U 98067XV  26034.57924955  .00114116  00000-0  12842-2 0  9994
2 66909  51.6256 238.1341 0002842 191.1942 168.8989 15.61702446  9848
SAKHACUBE-CHOLBON
1 67290U 25313AU  26034.44012825  .00012231  00000-0  53677-3 0  9999
2 67290  97.4073 111.3385 0011063 105.4334 254.8125 15.22041294  5618
QMR-KWT
1 67291U 25313AV  26034.43764568  .00017374  00000-0  75480-3 0  9996
2 67291  97.4072 111.3416 0010767 105.1593 255.0835 15.22308609  5614
IO-86
1 40931U          25360.30710720  .00000000  00000-0  12800-3 0    00
2 40931   6.0006 332.5373 0012733 338.8432   8.1437 14.79075515    01
